Location: Chevoux
(46.3801°N, 4.9476°E)
Time: 08:21:28
(UTC+00:00)

S3M - Visible Passes

Search period start: 09 May 2021 00:00
Search period end: 19 May 2021 00:00
Orbit: 949 x 1004 km, 83.0° (Epoch: 08 May)

Date Brightness Start Highest point End Pass type
(mag) Time Alt. Az. Time Alt. Az. Time Alt. Az.
09 May 4.5 20:31:00 10° SSW 20:37:20 64° WNW 20:43:38 10° N visible
09 May 6.7 22:21:54 10° WNW 22:24:06 12° WNW 22:26:17 10° NW visible
10 May 5.4 20:57:26 10° SW 21:03:18 38° WNW 21:09:10 10° N visible
11 May 4.1 19:37:10 10° S 19:43:29 68° E 19:49:45 10° NNE visible
11 May 6.3 21:24:34 10° WSW 21:29:27 23° WNW 21:34:21 10° NNW visible
12 May 4.4 20:02:53 10° SSW 20:09:14 72° W 20:15:34 10° N visible
12 May 6.7 21:52:53 10° W 21:55:50 13° WNW 21:58:47 10° NNW visible
13 May 5.3 20:29:09 10° SW 20:35:10 42° WNW 20:41:09 10° N visible
14 May 6.2 20:56:07 10° WSW 21:01:17 25° WNW 21:06:25 10° NNW visible
15 May 4.2 19:34:46 10° S 19:41:09 81° W 19:47:29 10° N visible
15 May 6.7 21:24:05 10° W 21:27:35 15° WNW 21:31:07 10° NNW visible
16 May 5.1 20:00:56 10° SSW 20:07:02 48° WNW 20:13:07 10° N visible
17 May 6.1 20:27:44 10° SW 20:33:06 28° WNW 20:38:27 10° N visible
18 May 6.7 20:55:24 10° WSW 20:59:22 17° WNW 21:03:20 10° NNW visible
